Weather History for KROW - July, 2013

Change the Weather History Date:

Sunday, July 14, 2013

  Actual Average Record
Temperature  
Mean Temperature 84 °F 80 °F  
Max Temperature 100 °F 94 °F 110 °F (1958)
Min Temperature 67 °F 67 °F 57 °F (1897)
Degree Days  
Heating Degree Days 0 0  
Month to date heating degree days 0 0  
Since 1 June heating degree days 0 1  
Since 1 July heating degree days 0 0  
Cooling Degree Days 19 16  
Month to date cooling degree days 231 222  
Year to date cooling degree days 1104 844  
Since 1 June cooling degree days 781 619  
Growing Degree Days 32 (Base 50)    
Moisture  
Dew Point 50 °F    
Average Humidity 39    
Maximum Humidity 64    
Minimum Humidity 14    
Precipitation  
Precipitation 0.01 in 0.06 in 2.52 in (1996)
Month to date precipitation 1.06 1.02  
Year to date precipitation 2.65 5.92  
Sea Level Pressure  
Sea Level Pressure 29.79 in    
Wind  
Wind Speed 7 mph (SE)    
Max Wind Speed 37 mph    
Max Gust Speed 46 mph    
Visibility 9 miles    
Events Rain    
T = Trace of Precipitation, MM = Missing Value Source: NWS Daily Summary

Daily Weather History Graph

Daily Weather History Graph

Search for Another Location

Airport or City:

Trip Planner

Search our weather history database for the weather conditions in past years. The results will help you decide how hot, cold, wet, or windy it might be!

Date:

Astronomy

Jul. 14, 2013 Rise Set
Actual Time 5:59 AM MDT 8:08 PM MDT
Civil Twilight 5:31 AM MDT 8:36 PM MDT
Nautical Twilight 4:56 AM MDT 9:11 PM MDT
Astronomical Twilight 4:19 AM MDT 9:48 PM MDT
Moon 11:56 AM MDT (7/14) 11:45 PM MDT (7/14)
Length of Visible Light 15h 05m
Length of Day
14h 09m
Waxing Crescent, 35% of the Moon is Illuminated
Jul 14
Waxing Crescent
Jul 15
First Quarter
Jul 22
Full
Jul 29
Last Quarter
Aug 6
New

Hourly Weather History & Observations

Time (MDT) Temp. Heat Index Dew Point Humidity Pressure Visibility Wind Dir Wind Speed Gust Speed Precip Events Conditions
12:51 AM 73.9 °F - 48.0 °F 40% 29.83 in 10.0 mi South 5.8 mph - N/A   Clear
1:51 AM 72.0 °F - 48.9 °F 44% 29.83 in 10.0 mi SW 4.6 mph - N/A   Clear
2:51 AM 72.0 °F - 48.9 °F 44% 29.83 in 10.0 mi SW 5.8 mph - N/A   Clear
3:51 AM 71.1 °F - 50.0 °F 47% 29.83 in 10.0 mi Calm Calm - N/A   Clear
4:51 AM 69.1 °F - 50.0 °F 51% 29.83 in 10.0 mi Calm Calm - N/A   Clear
5:51 AM 69.1 °F - 50.0 °F 51% 29.83 in 10.0 mi Calm Calm - N/A   Clear
6:51 AM 71.1 °F - 51.1 °F 49% 29.83 in 10.0 mi Calm Calm - N/A   Clear
7:51 AM 75.9 °F - 50.0 °F 40% 29.84 in 10.0 mi ESE 5.8 mph - N/A   Clear
8:51 AM 82.0 °F - 48.9 °F 31% 29.83 in 10.0 mi South 3.5 mph - N/A   Clear
9:51 AM 89.1 °F - 48.0 °F 24% 29.81 in 10.0 mi SSW 6.9 mph - N/A   Clear
10:51 AM 93.0 °F - 42.1 °F 17% 29.80 in 10.0 mi SSW 9.2 mph 16.1 mph N/A   Clear
11:51 AM 93.9 °F - 43.0 °F 17% 29.79 in 10.0 mi Calm Calm - N/A   Clear
12:51 PM 96.1 °F - 43.0 °F 16% 29.76 in 10.0 mi Variable 3.5 mph - N/A   Clear
1:51 PM 98.1 °F - 43.0 °F 15% 29.74 in 10.0 mi South 3.5 mph - 0.00 in   Clear
2:51 PM 99.0 °F - 43.0 °F 15% 29.71 in 10.0 mi SE 6.9 mph - N/A   Clear
3:51 PM 98.1 °F - 42.1 °F 15% 29.69 in 10.0 mi NE 5.8 mph - N/A   Clear
4:51 PM 99.0 °F - 42.1 °F 14% 29.66 in 10.0 mi Variable 4.6 mph - N/A   Clear
5:51 PM 99.0 °F - 41.0 °F 14% 29.65 in 10.0 mi South 8.1 mph - N/A   Clear
6:51 PM 96.1 °F - 39.9 °F 14% 29.65 in 10.0 mi South 4.6 mph - N/A   Clear
7:10 PM 91.4 °F - 50.0 °F 24% 29.91 in 1.8 mi North 19.6 mph 27.6 mph N/A   Haze
7:23 PM 82.4 °F 82.9 °F 60.8 °F 48% 29.91 in 2.0 mi North 28.8 mph 41.4 mph 0.00 in Rain Light Rain
7:33 PM 82.4 °F 82.5 °F 59.0 °F 45% 29.91 in 6.0 mi North 27.6 mph 38.0 mph 0.00 in   Haze
7:51 PM 84.9 °F 83.9 °F 57.0 °F 38% 29.71 in 6.0 mi NNE 27.6 mph 34.5 mph 0.00 in   Haze
8:51 PM 80.1 °F 81.2 °F 62.1 °F 54% 29.79 in 10.0 mi North 26.5 mph 32.2 mph N/A   Clear
9:51 PM 75.0 °F - 61.0 °F 62% 29.81 in 8.0 mi NE 19.6 mph 31.1 mph 0.00 in Rain Light Rain
10:51 PM 73.0 °F - 61.0 °F 66% 29.83 in 10.0 mi ENE 11.5 mph - 0.00 in Rain Light Rain
11:51 PM 72.0 °F - 60.1 °F 66% 29.86 in 10.0 mi East 11.5 mph - 0.00 in Rain Light Rain